Location: Casco Volunteer Fire Department
(44.5576°N, 87.6146°W)
Time: 04:59:48
(UTC+00:00)

Cosmos 371 Rocket - Pass Details

Date: 22 January 2026
Orbit: 675 x 688 km, 74.0° (Epoch: 10 February)

Event Time Altitude Azimuth Distance (km) Brightness Sun altitude
Rises 12:22:00 0° 221° (SW) 3,040 6.4 -10.2°
Reaches altitude 10° 12:24:26 10° 229° (SW) 2,127 5.5 -9.8°
Maximum altitude 12:28:54 38° 298° (WNW) 1,036 3.7 -9.0°
Drops below altitude 10° 12:33:24 10° 7° (N) 2,133 5.7 -8.3°
Sets 12:35:51 0° 15° (NNE) 3,051 6.6 -7.9°
